Weather in Ozdere

Turkey     38°00′54″N   27°07′43″E
temp.,
°C
wind,
m/s
gust,
m/s
humid.,
%
clouds,
%
prec.,
mm/h
press.,
hPa
HPBL,
m
16 april, fri
fri1600:00+12ne00918 0.0 101713
03:00+11ne119244 0.0 101621
06:00+10ene229311 0.0 101627
09:00+15e227232 0.0 1017278
12:00+19ssw23515 0.0 10161069
15:00+20wsw4448100 0.0 1016894
18:00+18sw1258100 0.0 1015434
21:00+14sw1176100 0.0 101611
17 april, sat
sat1700:00+14wnw1173100 0.0 101612
03:00+14nne2272100 0.0 101428
06:00+13ene2271100 0.0 101343
09:00+16ene2360100 0.0 1014144
12:00+23ese373996 0.0 1012713
15:00+25sse81830100 0.0 10101503
18:00+22s51336100 0.0 1010949
21:00+19e4736100 0.0 1010148
18 april, sun
sun1800:00+18ene1141100 0.0 101113
03:00+16ese3355100 0.2 101242
06:00+16ese3458100 0.0 101358
09:00+17e3360100 0.0 1013110
12:00+16ese3575100 0.6 1016108
15:00+17ene2282100 1.7 101791
18:00+18ne3384100 0.1 101570
21:00+16ne3385100 0.3 101547
19 april, mon
mon1900:00+16ene3390100 0.9 101565
03:00+16ne3387100 1.1 101140
06:00+14nw239142 0.3 101170
09:00+18wnw156987 0.4 1011484
12:00+16w2479100 0.6 1011483
15:00+14s3670100 0.8 1010569
18:00+16ssw57641 0.0 10101084
21:00+13s46770 0.0 1011229
20 april, tue
tue2000:00+11s36840 0.3 1012142
03:00+10se22923 0.6 101258
06:00+9ese11934 0.1 101243
09:00+14se127110 0.2 1014620
12:00+17wsw44521 0.1 10151301
15:00+17wsw55520 0.1 10151112
18:00+16sw34569 0.0 1015672
21:00+12ssw12775 0.0 101727